{"data":{"norad_id":62973,"intl_designator":"2025-030C","name":"HULIANWANG DIGUI-13","alt_names":[],"object_type":"PAYLOAD","status":"ACTIVE","operator":null,"country":"PRC","launch_date":"2025-02-11","launch_site_code":"WSC","launch_vehicle":null,"mission":null,"orbit_class":"UNKNOWN","rcs_meters":null,"size_class":null,"mass_kg":null,"dimensions":null,"purposes":[],"wikipedia_slug":null,"has_3d_model":false,"image_url":null,"decayed_at":null,"tle_current":{"epoch":"2026-05-24T23:54:51.524352Z","epoch_age_seconds":85923,"freshness":"FRESH","line1":"1 62973U 25030C   26144.99642968 -.00000104  00000+0  43394-4 0  9999","line2":"2 62973  50.0036 318.9973 0001107  93.3674 266.7325 13.29326736 62779","mean_motion":13.29326736,"eccentricity":0.0001107,"inclination_deg":50.0036,"raan_deg":318.9973,"arg_perigee_deg":93.3674,"mean_anomaly_deg":266.7325,"bstar":4.3394e-5,"rev_number":6277,"period_min":108.32551253223,"perigee_km":1148.4705057094,"apogee_km":1150.137081101,"semimajor_km":7527.4407934052,"source":"CELESTRAK","updated_at":"2026-05-25T13:38:03.395710Z"}}}